Wetterdaten: Woche 23.03.09 - 29.03.09 (KW13)
Datum Zeit Temp. Innen Temp. Aussen Feuchte Inne Feuchte Auss Luftdruck Regen ab 0,1 Wind
23.03.2009 00:00 17,8 C 7,9 C 42 % 75 % 1022,5 hPa 0,0 l/m 1,4 km/h (1 Bft)
23.03.2009 01:00 17,7 C 8,1 C 42 % 74 % 1021,9 hPa 0,0 l/m 2,3 km/h (1 Bft)
23.03.2009 02:00 17,6 C 8,1 C 43 % 74 % 1020,7 hPa 0,0 l/m 2,4 km/h (1 Bft)
23.03.2009 03:00 17,6 C 7,9 C 43 % 76 % 1020,0 hPa 0,0 l/m 1,5 km/h (1 Bft)
23.03.2009 04:00 17,5 C 7,8 C 43 % 77 % 1018,8 hPa 0,0 l/m 1,7 km/h (1 Bft)
23.03.2009 05:00 17,5 C 7,7 C 43 % 78 % 1018,0 hPa 0,0 l/m 1,8 km/h (1 Bft)
23.03.2009 06:00 17,5 C 7,5 C 44 % 78 % 1017,1 hPa 0,0 l/m 1,1 km/h (1 Bft)
23.03.2009 07:00 17,6 C 7,4 C 44 % 79 % 1016,1 hPa 0,0 l/m 3,2 km/h (1 Bft)
23.03.2009 08:00 17,6 C 7,7 C 44 % 78 % 1015,3 hPa 0,0 l/m 5,3 km/h (1 Bft)
23.03.2009 09:00 17,5 C 8,4 C 44 % 76 % 1014,1 hPa 0,0 l/m 6,8 km/h (2 Bft)
23.03.2009 10:00 17,4 C 9,0 C 44 % 73 % 1012,8 hPa 0,0 l/m 9,9 km/h (2 Bft)
23.03.2009 11:00 17,4 C 9,3 C 45 % 70 % 1011,3 hPa 0,0 l/m 6,8 km/h (2 Bft)
23.03.2009 12:00 17,4 C 9,4 C 47 % 69 % 1010,1 hPa 0,0 l/m 9,4 km/h (2 Bft)
23.03.2009 13:00 17,6 C 9,0 C 48 % 75 % 1008,7 hPa 0,5 l/m 9,6 km/h (2 Bft)
23.03.2009 14:00 17,5 C 8,1 C 48 % 79 % 1007,7 hPa 0,0 l/m 7,3 km/h (2 Bft)
23.03.2009 15:00 17,5 C 7,9 C 47 % 79 % 1006,1 hPa 0,0 l/m 7,1 km/h (2 Bft)
23.03.2009 16:00 17,4 C 7,7 C 48 % 81 % 1004,9 hPa 1,0 l/m 4,4 km/h (1 Bft)
23.03.2009 17:00 17,3 C 6,8 C 49 % 83 % 1004,6 hPa 5,2 l/m 6,0 km/h (2 Bft)
23.03.2009 18:00 17,2 C 5,2 C 47 % 85 % 1004,4 hPa 0,0 l/m 3,7 km/h (1 Bft)
23.03.2009 19:00 17,3 C 5,3 C 47 % 85 % 1004,3 hPa 0,0 l/m 3,4 km/h (1 Bft)
23.03.2009 20:00 17,3 C 4,9 C 47 % 85 % 1004,4 hPa 0,0 l/m 2,8 km/h (1 Bft)
23.03.2009 21:00 17,3 C 4,5 C 47 % 83 % 1004,4 hPa 0,0 l/m 1,7 km/h (1 Bft)
23.03.2009 22:00 17,3 C 3,9 C 47 % 81 % 1004,4 hPa 0,0 l/m 1,3 km/h (1 Bft)
23.03.2009 23:00 17,4 C 3,4 C 45 % 82 % 1003,6 hPa 0,0 l/m 2,0 km/h (1 Bft)
24.03.2009 00:00 17,4 C 3,5 C 44 % 82 % 1003,5 hPa 1,0 l/m 2,0 km/h (1 Bft)
24.03.2009 01:00 17,2 C 3,1 C 44 % 84 % 1003,5 hPa 1,0 l/m 4,7 km/h (1 Bft)
24.03.2009 02:00 17,2 C 2,3 C 44 % 85 % 1003,5 hPa 0,0 l/m 2,7 km/h (1 Bft)
24.03.2009 03:00 17,1 C 2,1 C 44 % 86 % 1003,5 hPa 0,0 l/m 1,9 km/h (1 Bft)
24.03.2009 04:00 17,0 C 2,6 C 44 % 87 % 1004,3 hPa 0,0 l/m 2,2 km/h (1 Bft)
24.03.2009 05:00 17,0 C 2,9 C 44 % 86 % 1004,7 hPa 0,0 l/m 2,5 km/h (1 Bft)
24.03.2009 06:00 16,9 C 2,5 C 44 % 86 % 1005,6 hPa 0,0 l/m 0,7 km/h (0 Bft)
24.03.2009 07:00 16,9 C 2,5 C 44 % 86 % 1006,5 hPa 0,0 l/m 1,5 km/h (1 Bft)
24.03.2009 08:00 16,9 C 3,1 C 44 % 86 % 1006,7 hPa 0,0 l/m 2,2 km/h (1 Bft)
24.03.2009 09:00 16,8 C 4,4 C 44 % 84 % 1007,5 hPa 0,0 l/m 2,5 km/h (1 Bft)
24.03.2009 10:00 16,7 C 5,4 C 44 % 80 % 1008,3 hPa 0,0 l/m 3,4 km/h (1 Bft)
24.03.2009 11:00 16,7 C 6,3 C 44 % 76 % 1008,4 hPa 0,0 l/m 4,2 km/h (1 Bft)
24.03.2009 12:00 16,7 C 7,4 C 43 % 69 % 1008,4 hPa 0,0 l/m 3,5 km/h (1 Bft)
24.03.2009 13:00 16,6 C 7,6 C 43 % 67 % 1008,6 hPa 0,0 l/m 3,0 km/h (1 Bft)
24.03.2009 14:00 16,8 C 7,8 C 42 % 65 % 1009,3 hPa 0,0 l/m 3,5 km/h (1 Bft)
24.03.2009 15:00 16,8 C 6,5 C 42 % 70 % 1010,1 hPa 0,0 l/m 1,2 km/h (1 Bft)
24.03.2009 16:00 16,8 C 6,8 C 42 % 65 % 1010,6 hPa 0,0 l/m 1,0 km/h (0 Bft)
24.03.2009 17:00 16,7 C 6,8 C 39 % 53 % 1011,4 hPa 0,0 l/m 0,4 km/h (0 Bft)
24.03.2009 18:00 16,7 C 5,7 C 37 % 53 % 1011,9 hPa 0,0 l/m 0,0 km/h (0 Bft)
24.03.2009 19:00 16,7 C 4,2 C 36 % 58 % 1012,5 hPa 0,0 l/m 0,0 km/h (0 Bft)
24.03.2009 20:00 17,0 C 2,7 C 36 % 63 % 1012,6 hPa 0,0 l/m 0,0 km/h (0 Bft)
24.03.2009 21:00 17,3 C 1,6 C 36 % 67 % 1012,5 hPa 0,0 l/m 0,0 km/h (0 Bft)
24.03.2009 22:00 17,4 C 0,7 C 36 % 71 % 1012,0 hPa 0,0 l/m 0,0 km/h (0 Bft)
24.03.2009 23:00 17,1 C 0,5 C 37 % 72 % 1011,5 hPa 0,0 l/m 0,0 km/h (0 Bft)
25.03.2009 00:00 16,8 C 0,9 C 37 % 75 % 1010,7 hPa 0,0 l/m 0,0 km/h (0 Bft)
25.03.2009 01:00 16,8 C 1,4 C 38 % 78 % 1009,9 hPa 0,0 l/m 0,0 km/h (0 Bft)
25.03.2009 02:00 16,7 C 2,1 C 39 % 81 % 1008,8 hPa 0,0 l/m 0,3 km/h (0 Bft)
25.03.2009 03:00 16,7 C 2,8 C 39 % 81 % 1007,1 hPa 0,0 l/m 0,3 km/h (0 Bft)
25.03.2009 04:00 16,6 C 3,3 C 40 % 82 % 1006,0 hPa 0,5 l/m 1,3 km/h (1 Bft)
25.03.2009 05:00 16,6 C 3,3 C 40 % 84 % 1004,1 hPa 1,0 l/m 1,5 km/h (1 Bft)
25.03.2009 06:00 16,6 C 3,1 C 41 % 85 % 1002,2 hPa 1,6 l/m 3,2 km/h (1 Bft)
25.03.2009 07:00 16,6 C 2,8 C 41 % 85 % 1000,5 hPa 0,5 l/m 2,5 km/h (1 Bft)
25.03.2009 08:00 16,6 C 2,8 C 41 % 86 % 999,1 hPa 0,5 l/m 4,9 km/h (1 Bft)
25.03.2009 09:00 16,6 C 3,3 C 42 % 86 % 998,0 hPa 0,0 l/m 3,3 km/h (1 Bft)
25.03.2009 10:00 16,5 C 4,0 C 42 % 86 % 997,3 hPa 1,6 l/m 6,0 km/h (2 Bft)
25.03.2009 11:00 16,4 C 4,3 C 43 % 86 % 996,4 hPa 0,5 l/m 5,5 km/h (1 Bft)
25.03.2009 12:00 16,6 C 5,2 C 43 % 87 % 996,4 hPa 0,0 l/m 3,1 km/h (1 Bft)
25.03.2009 13:00 16,6 C 6,2 C 43 % 86 % 996,4 hPa 0,5 l/m 2,5 km/h (1 Bft)
25.03.2009 14:00 16,8 C 6,9 C 44 % 84 % 996,1 hPa 0,0 l/m 4,6 km/h (1 Bft)
25.03.2009 15:00 16,8 C 6,0 C 44 % 82 % 996,4 hPa 1,6 l/m 0,8 km/h (0 Bft)
25.03.2009 16:00 16,8 C 6,0 C 44 % 85 % 996,6 hPa 0,0 l/m 4,0 km/h (1 Bft)
25.03.2009 17:00 16,8 C 6,8 C 44 % 82 % 997,4 hPa 0,0 l/m 0,9 km/h (0 Bft)
25.03.2009 18:00 16,8 C 6,6 C 44 % 81 % 998,0 hPa 0,0 l/m 4,2 km/h (1 Bft)
25.03.2009 19:00 16,9 C 6,4 C 44 % 79 % 999,0 hPa 0,0 l/m 5,7 km/h (1 Bft)
25.03.2009 20:00 16,9 C 5,8 C 44 % 83 % 1000,4 hPa 0,5 l/m 3,0 km/h (1 Bft)
25.03.2009 21:00 16,8 C 5,5 C 45 % 84 % 1001,6 hPa 0,0 l/m 3,3 km/h (1 Bft)
25.03.2009 22:00 16,8 C 5,3 C 45 % 83 % 1002,4 hPa 0,0 l/m 2,3 km/h (1 Bft)
25.03.2009 23:00 17,2 C 5,1 C 44 % 84 % 1003,1 hPa 0,0 l/m 0,1 km/h (0 Bft)
26.03.2009 00:00 17,1 C 5,3 C 44 % 84 % 1003,5 hPa 0,0 l/m 1,5 km/h (1 Bft)
26.03.2009 01:00 16,8 C 5,4 C 44 % 83 % 1004,4 hPa 0,0 l/m 0,6 km/h (0 Bft)
26.03.2009 02:00 16,7 C 5,5 C 44 % 84 % 1004,4 hPa 0,0 l/m 1,7 km/h (1 Bft)
26.03.2009 03:00 16,6 C 5,2 C 45 % 83 % 1004,6 hPa 0,0 l/m 3,5 km/h (1 Bft)
26.03.2009 04:00 16,5 C 5,0 C 45 % 83 % 1005,4 hPa 0,0 l/m 1,6 km/h (1 Bft)
26.03.2009 05:00 16,5 C 4,9 C 45 % 82 % 1005,4 hPa 0,0 l/m 0,5 km/h (0 Bft)
26.03.2009 06:00 16,4 C 4,9 C 45 % 84 % 1005,4 hPa 0,0 l/m 3,2 km/h (1 Bft)
26.03.2009 07:00 16,5 C 5,3 C 45 % 86 % 1005,4 hPa 0,0 l/m 5,8 km/h (2 Bft)
26.03.2009 08:00 16,3 C 6,1 C 46 % 85 % 1005,7 hPa 0,0 l/m 5,5 km/h (1 Bft)
26.03.2009 09:00 15,9 C 7,0 C 47 % 83 % 1005,4 hPa 0,0 l/m 3,2 km/h (1 Bft)
26.03.2009 10:00 16,0 C 7,6 C 48 % 80 % 1005,4 hPa 0,0 l/m 3,2 km/h (1 Bft)
26.03.2009 11:00 16,2 C 8,1 C 48 % 78 % 1004,6 hPa 0,0 l/m 5,6 km/h (1 Bft)
26.03.2009 12:00 16,2 C 7,4 C 49 % 81 % 1004,2 hPa 0,5 l/m 2,1 km/h (1 Bft)
26.03.2009 13:00 16,3 C 7,2 C 50 % 83 % 1003,1 hPa 1,0 l/m 2,0 km/h (1 Bft)
26.03.2009 14:00 16,3 C 7,3 C 50 % 85 % 1002,3 hPa 0,0 l/m 3,2 km/h (1 Bft)
26.03.2009 15:00 16,3 C 7,7 C 50 % 85 % 1001,4 hPa 0,0 l/m 7,1 km/h (2 Bft)
26.03.2009 16:00 16,3 C 7,7 C 49 % 84 % 1000,5 hPa 0,0 l/m 4,8 km/h (1 Bft)
26.03.2009 17:00 16,3 C 7,7 C 50 % 85 % 999,6 hPa 0,5 l/m 7,2 km/h (2 Bft)
26.03.2009 18:00 16,4 C 7,9 C 50 % 86 % 999,4 hPa 0,0 l/m 7,2 km/h (2 Bft)
26.03.2009 19:00 16,8 C 8,0 C 50 % 88 % 998,5 hPa 3,6 l/m 5,2 km/h (1 Bft)
26.03.2009 20:00 16,7 C 8,3 C 50 % 87 % 998,4 hPa 0,0 l/m 6,9 km/h (2 Bft)
26.03.2009 21:00 16,7 C 8,3 C 50 % 87 % 998,4 hPa 0,0 l/m 7,4 km/h (2 Bft)
26.03.2009 22:00 17,1 C 8,3 C 51 % 87 % 998,4 hPa 0,0 l/m 5,8 km/h (2 Bft)
26.03.2009 23:00 17,2 C 8,4 C 50 % 87 % 998,4 hPa 1,0 l/m 6,3 km/h (2 Bft)
27.03.2009 00:00 16,9 C 7,9 C 50 % 87 % 998,4 hPa 0,5 l/m 1,7 km/h (1 Bft)
27.03.2009 01:00 16,7 C 7,3 C 50 % 87 % 998,4 hPa 0,0 l/m 2,7 km/h (1 Bft)
27.03.2009 02:00 16,6 C 6,5 C 50 % 87 % 998,4 hPa 0,5 l/m 0,9 km/h (0 Bft)
27.03.2009 03:00 16,5 C 6,2 C 50 % 87 % 998,1 hPa 0,0 l/m 0,6 km/h (0 Bft)
27.03.2009 04:00 16,5 C 5,8 C 50 % 87 % 998,4 hPa 1,0 l/m 0,4 km/h (0 Bft)
27.03.2009 05:00 16,4 C 5,7 C 50 % 88 % 998,4 hPa 0,0 l/m 1,7 km/h (1 Bft)
27.03.2009 06:00 16,5 C 5,9 C 50 % 88 % 998,4 hPa 0,0 l/m 0,8 km/h (0 Bft)
27.03.2009 07:00 16,7 C 6,1 C 49 % 87 % 998,4 hPa 0,0 l/m 3,5 km/h (1 Bft)
27.03.2009 08:00 16,8 C 6,5 C 49 % 85 % 998,5 hPa 0,0 l/m 5,5 km/h (1 Bft)
27.03.2009 09:00 16,6 C 7,1 C 49 % 81 % 998,4 hPa 0,0 l/m 3,5 km/h (1 Bft)
27.03.2009 10:00 16,5 C 7,0 C 49 % 78 % 999,2 hPa 0,0 l/m 3,4 km/h (1 Bft)
27.03.2009 11:00 16,4 C 7,7 C 48 % 72 % 999,4 hPa 0,0 l/m 5,7 km/h (1 Bft)
27.03.2009 12:00 16,4 C 8,2 C 48 % 68 % 999,4 hPa 0,0 l/m 8,0 km/h (2 Bft)
27.03.2009 13:00 16,5 C 9,4 C 47 % 60 % 999,2 hPa 0,0 l/m 10,3 km/h (2 Bft)
27.03.2009 14:00 16,6 C 9,5 C 46 % 59 % 998,9 hPa 0,0 l/m 7,2 km/h (2 Bft)
27.03.2009 15:00 16,7 C 9,5 C 45 % 58 % 998,3 hPa 0,0 l/m 8,9 km/h (2 Bft)
27.03.2009 16:00 16,8 C 9,7 C 45 % 58 % 998,3 hPa 0,0 l/m 4,5 km/h (1 Bft)
27.03.2009 17:00 16,8 C 9,7 C 45 % 55 % 997,7 hPa 0,0 l/m 2,1 km/h (1 Bft)
27.03.2009 18:00 17,1 C 8,9 C 45 % 59 % 998,1 hPa 0,0 l/m 3,2 km/h (1 Bft)
27.03.2009 19:00 17,3 C 7,7 C 44 % 66 % 998,4 hPa 0,0 l/m 3,3 km/h (1 Bft)
27.03.2009 20:00 17,4 C 7,0 C 44 % 68 % 998,4 hPa 0,0 l/m 5,2 km/h (1 Bft)
27.03.2009 21:00 17,5 C 6,4 C 44 % 71 % 998,4 hPa 0,0 l/m 1,0 km/h (0 Bft)
27.03.2009 22:00 17,7 C 6,1 C 44 % 74 % 997,9 hPa 0,0 l/m 1,0 km/h (0 Bft)
27.03.2009 23:00 17,6 C 5,7 C 44 % 77 % 997,4 hPa 0,0 l/m 0,1 km/h (0 Bft)
28.03.2009 00:00 17,2 C 4,9 C 44 % 79 % 997,4 hPa 0,0 l/m 0,0 km/h (0 Bft)
28.03.2009 01:00 16,9 C 4,9 C 45 % 81 % 996,5 hPa 0,0 l/m 0,0 km/h (0 Bft)
28.03.2009 02:00 16,8 C 5,1 C 45 % 82 % 995,8 hPa 0,0 l/m 0,1 km/h (0 Bft)
28.03.2009 03:00 16,7 C 5,0 C 46 % 83 % 994,5 hPa 0,0 l/m 0,0 km/h (0 Bft)
28.03.2009 04:00 16,6 C 5,3 C 46 % 83 % 994,0 hPa 0,0 l/m 0,0 km/h (0 Bft)
28.03.2009 05:00 16,6 C 5,6 C 46 % 84 % 993,4 hPa 0,0 l/m 0,4 km/h (0 Bft)
28.03.2009 06:00 16,7 C 5,9 C 46 % 82 % 992,9 hPa 0,0 l/m 0,3 km/h (0 Bft)
28.03.2009 07:00 16,8 C 5,9 C 46 % 83 % 992,4 hPa 0,0 l/m 0,6 km/h (0 Bft)
28.03.2009 08:00 17,1 C 6,5 C 47 % 83 % 991,5 hPa 0,0 l/m 0,1 km/h (0 Bft)
28.03.2009 09:00 17,0 C 7,1 C 47 % 82 % 991,3 hPa 0,0 l/m 0,4 km/h (0 Bft)
28.03.2009 10:00 17,0 C 7,3 C 47 % 82 % 991,5 hPa 0,5 l/m 2,6 km/h (1 Bft)
28.03.2009 11:00 17,2 C 7,6 C 47 % 79 % 992,3 hPa 0,0 l/m 6,1 km/h (2 Bft)
28.03.2009 12:00 17,5 C 7,0 C 47 % 78 % 993,4 hPa 0,0 l/m 9,4 km/h (2 Bft)
28.03.2009 13:00 17,4 C 6,0 C 46 % 81 % 995,0 hPa 0,0 l/m 7,8 km/h (2 Bft)
28.03.2009 14:00 17,6 C 7,1 C 46 % 78 % 995,7 hPa 0,0 l/m 5,6 km/h (1 Bft)
28.03.2009 15:00 17,9 C 9,8 C 45 % 67 % 996,3 hPa 0,0 l/m 6,8 km/h (2 Bft)
28.03.2009 16:00 17,7 C 9,9 C 45 % 65 % 996,5 hPa 0,0 l/m 1,8 km/h (1 Bft)
28.03.2009 17:00 17,6 C 8,6 C 45 % 69 % 997,2 hPa 0,5 l/m 5,6 km/h (1 Bft)
28.03.2009 18:00 17,5 C 7,5 C 45 % 73 % 998,4 hPa 0,0 l/m 3,2 km/h (1 Bft)
28.03.2009 19:00 17,5 C 6,9 C 46 % 76 % 999,3 hPa 0,0 l/m 0,8 km/h (0 Bft)
28.03.2009 20:00 17,4 C 6,5 C 46 % 77 % 1000,3 hPa 0,0 l/m 2,4 km/h (1 Bft)
28.03.2009 21:00 17,4 C 5,8 C 46 % 81 % 1001,2 hPa 0,5 l/m 0,1 km/h (0 Bft)
28.03.2009 22:00 17,9 C 5,8 C 46 % 82 % 1001,4 hPa 0,0 l/m 0,8 km/h (0 Bft)
28.03.2009 23:00 17,8 C 5,9 C 46 % 82 % 1002,4 hPa 0,0 l/m 2,0 km/h (1 Bft)
29.03.2009 00:00 17,5 C 5,9 C 46 % 82 % 1002,4 hPa 0,0 l/m 2,2 km/h (1 Bft)
29.03.2009 01:00 17,3 C 5,7 C 46 % 81 % 1003,4 hPa 0,0 l/m 0,8 km/h (0 Bft)
29.03.2009 02:00 17,3 C 5,7 C 46 % 81 % 1003,4 hPa 0,0 l/m 0,6 km/h (0 Bft)
29.03.2009 03:00 17,2 C 5,3 C 46 % 83 % 1003,4 hPa 0,0 l/m 0,2 km/h (0 Bft)
29.03.2009 04:00 17,1 C 5,2 C 47 % 85 % 1003,5 hPa 0,5 l/m 0,1 km/h (0 Bft)
29.03.2009 05:00 17,0 C 5,1 C 47 % 85 % 1004,4 hPa 0,0 l/m 0,0 km/h (0 Bft)
29.03.2009 06:00 16,9 C 5,1 C 47 % 86 % 1004,6 hPa 0,0 l/m 0,4 km/h (0 Bft)
29.03.2009 07:00 17,0 C 5,2 C 47 % 87 % 1005,6 hPa 0,0 l/m 0,3 km/h (0 Bft)
29.03.2009 08:00 17,1 C 5,1 C 47 % 87 % 1006,7 hPa 0,0 l/m 0,4 km/h (0 Bft)
29.03.2009 09:00 17,2 C 5,2 C 47 % 87 % 1007,7 hPa 0,5 l/m 0,5 km/h (0 Bft)
29.03.2009 10:00 17,2 C 5,8 C 47 % 87 % 1008,4 hPa 0,0 l/m 0,9 km/h (0 Bft)
29.03.2009 11:00 17,2 C 7,3 C 47 % 80 % 1009,4 hPa 0,0 l/m 1,0 km/h (0 Bft)
29.03.2009 12:00 17,2 C 8,7 C 47 % 72 % 1009,4 hPa 0,0 l/m 2,0 km/h (1 Bft)
29.03.2009 13:00 17,3 C 9,5 C 46 % 68 % 1009,9 hPa 0,0 l/m 1,3 km/h (1 Bft)
29.03.2009 14:00 17,4 C 8,8 C 46 % 69 % 1010,4 hPa 0,0 l/m 0,6 km/h (0 Bft)
29.03.2009 15:00 17,4 C 8,6 C 46 % 70 % 1010,4 hPa 0,0 l/m 0,1 km/h (0 Bft)
29.03.2009 16:00 17,4 C 7,2 C 45 % 71 % 1010,4 hPa 0,0 l/m 0,0 km/h (0 Bft)
29.03.2009 17:00 17,4 C 7,2 C 45 % 73 % 1011,2 hPa 0,0 l/m 0,0 km/h (0 Bft)
29.03.2009 18:00 17,5 C 7,8 C 45 % 71 % 1011,4 hPa 0,0 l/m 0,0 km/h (0 Bft)
29.03.2009 19:00 17,5 C 7,6 C 45 % 70 % 1012,1 hPa 0,0 l/m 0,0 km/h (0 Bft)
29.03.2009 20:00 17,6 C 7,0 C 45 % 72 % 1012,9 hPa 0,0 l/m 0,0 km/h (0 Bft)
29.03.2009 21:00 17,6 C 6,2 C 45 % 73 % 1013,8 hPa 0,0 l/m 0,0 km/h (0 Bft)
29.03.2009 22:00 17,7 C 5,2 C 44 % 75 % 1014,5 hPa 0,0 l/m 0,0 km/h (0 Bft)
29.03.2009 23:00 17,6 C 5,0 C 44 % 77 % 1015,3 hPa 0,0 l/m 0,0 km/h (0 Bft)
Min-Datum _ 26.03.09 24.03.09 24.03.09 24.03.09 28.03.09 - 23.03.09
_ Min-Zeit 09:02 22:54 18:40 17:22 08:36 - 00:10
Minimum _ 15,8 C 0,3 C 36 % 52 % 991,3 hPa - 0,0 km/h (0 Bft)
Max-Datum _ 28.03.09 27.03.09 26.03.09 26.03.09 23.03.09 23.03.09 23.03.09
_ Max-Zeit 15:42 14:04 21:46 19:10 00:00 17:36 10:22
Maximum _ 18,0 C 10,1 C 51 % 88 % 1022,5 hPa 5,2 l/m 39,8 km/h
N-NW (6 Bft)
Durchschnitt _ 17,0 C 6,1 C 45 % 79 % 1003,7 hPa #29,0 l/m 2,8 km/h (1 Bft)
© 2012 W. Hausmann